ANA613 RJTT-RJFM

Flight info

Callsign ANA613
Flight time 1h 20m
Altitude 28000
Route LAXAS Y56 TOHME Y54 RUPAP Y244 GREEN Y24 SUC Y402 RYUGU
Aircraft A321/M-SDE3FGHIRWY/LB1

Departure

Time 2026-05-07 08:45
Airport Tokyo Haneda International Airport (RJTT)

Arrival

Time 2026-05-07 10:05
Airport Miyazaki Airport (RJFM)
Time Latitude Longitude Altitude Speed Heading
2026-05-07 08:20 35.55323 139.78840 28 ft 0 kts 240°
2026-05-07 08:35 35.55329 139.78852 27 ft 4 kts 240°
2026-05-07 08:35 35.55341 139.78877 27 ft 2 kts 239°
2026-05-07 08:35 35.55350 139.78904 27 ft 4 kts 272°
2026-05-07 08:35 35.55342 139.78932 27 ft 4 kts 317°
2026-05-07 08:36 35.55332 139.78941 28 ft 0 kts 330°
2026-05-07 08:38 35.55335 139.78940 27 ft 2 kts 330°
2026-05-07 08:39 35.55378 139.78926 28 ft 11 kts
2026-05-07 08:39 35.55433 139.79005 27 ft 12 kts 60°
2026-05-07 08:39 35.55492 139.79050 28 ft 10 kts 346°
2026-05-07 08:39 35.55554 139.79007 28 ft 11 kts 329°
2026-05-07 08:40 35.55629 139.78954 28 ft 15 kts 330°
2026-05-07 08:40 35.55742 139.78874 26 ft 23 kts 329°
2026-05-07 08:40 35.55903 139.78760 24 ft 28 kts 329°
2026-05-07 08:40 35.56069 139.78642 23 ft 27 kts 330°
2026-05-07 08:41 35.56229 139.78528 25 ft 26 kts 330°
2026-05-07 08:41 35.56332 139.78451 27 ft 12 kts 315°
2026-05-07 08:41 35.56332 139.78364 26 ft 11 kts 240°
2026-05-07 08:41 35.56295 139.78286 29 ft 10 kts 247°
2026-05-07 08:42 35.56323 139.78223 26 ft 9 kts 327°
2026-05-07 08:42 35.56375 139.78186 27 ft 11 kts 330°
2026-05-07 08:42 35.56457 139.78127 26 ft 15 kts 330°
2026-05-07 08:42 35.56530 139.78059 30 ft 11 kts 306°
2026-05-07 08:43 35.56575 139.77979 32 ft 14 kts 305°
2026-05-07 08:43 35.56641 139.77865 37 ft 19 kts 305°
2026-05-07 08:43 35.56705 139.77754 40 ft 13 kts 305°
2026-05-07 08:43 35.56716 139.77683 42 ft 8 kts 230°
2026-05-07 08:44 35.56702 139.77670 43 ft 1 kts 213°
2026-05-07 08:44 35.56630 139.77610 40 ft 38 kts 215°
2026-05-07 08:44 35.56211 139.77250 35 ft 106 kts 215°
2026-05-07 08:44 35.55449 139.76600 31 ft 157 kts 213°
2026-05-07 08:45 35.54564 139.75835 663 ft 150 kts 212°
2026-05-07 08:45 35.53589 139.75463 1259 ft 149 kts 176°
2026-05-07 08:45 35.52550 139.75560 1860 ft 152 kts 176°
2026-05-07 08:45 35.51432 139.75654 2165 ft 172 kts 178°
2026-05-07 08:46 35.50183 139.75749 2363 ft 193 kts 179°
2026-05-07 08:46 35.48762 139.75853 2502 ft 217 kts 179°
2026-05-07 08:46 35.47166 139.75966 2788 ft 241 kts 179°
2026-05-07 08:46 35.45469 139.76087 3544 ft 248 kts 179°
2026-05-07 08:47 35.43732 139.76181 4406 ft 251 kts 181°
2026-05-07 08:47 35.41972 139.76206 5245 ft 255 kts 183°
2026-05-07 08:47 35.40186 139.76203 6080 ft 258 kts 184°
2026-05-07 08:47 35.38377 139.76190 6892 ft 262 kts 184°
2026-05-07 08:48 35.36566 139.76184 7669 ft 265 kts 184°
2026-05-07 08:48 35.34703 139.76375 8403 ft 274 kts 171°
2026-05-07 08:48 35.32847 139.77007 9125 ft 279 kts 168°
2026-05-07 08:48 35.30975 139.77671 9822 ft 282 kts 168°
2026-05-07 08:49 35.29059 139.78349 10328 ft 295 kts 168°
2026-05-07 08:49 35.27008 139.79065 10493 ft 318 kts 168°
2026-05-07 08:49 35.24770 139.79597 10620 ft 337 kts 179°
2026-05-07 08:49 35.22382 139.79523 10761 ft 352 kts 191°
2026-05-07 08:50 35.20027 139.78757 11177 ft 358 kts 204°
2026-05-07 08:50 35.17832 139.77324 11785 ft 360 kts 216°
2026-05-07 08:50 35.15940 139.75313 12432 ft 362 kts 226°
2026-05-07 08:50 35.14181 139.73087 13080 ft 365 kts 227°
2026-05-07 08:51 35.12462 139.70789 13711 ft 368 kts 230°
2026-05-07 08:51 35.11031 139.68193 14309 ft 371 kts 242°
2026-05-07 08:51 35.10035 139.65275 14884 ft 374 kts 251°
2026-05-07 08:51 35.09444 139.62166 15441 ft 378 kts 257°
2026-05-07 08:52 35.08937 139.59048 15958 ft 381 kts 257°
2026-05-07 08:52 35.08410 139.55862 16473 ft 384 kts 257°
2026-05-07 08:52 35.07871 139.52649 16976 ft 387 kts 257°
2026-05-07 08:52 35.07328 139.49417 17478 ft 390 kts 257°
2026-05-07 08:53 35.06785 139.46162 17967 ft 393 kts 257°
2026-05-07 08:53 35.06240 139.42879 18472 ft 396 kts 257°
2026-05-07 08:53 35.05694 139.39581 18916 ft 398 kts 257°
2026-05-07 08:53 35.05145 139.36255 19353 ft 401 kts 257°
2026-05-07 08:54 35.04591 139.32904 19767 ft 405 kts 257°
2026-05-07 08:54 35.04035 139.29569 20182 ft 407 kts 257°
2026-05-07 08:54 35.03467 139.26170 20596 ft 410 kts 257°
2026-05-07 08:54 35.02896 139.22754 21003 ft 413 kts 257°
2026-05-07 08:55 35.02317 139.19305 21403 ft 416 kts 257°
2026-05-07 08:55 35.01734 139.15846 21789 ft 418 kts 257°
2026-05-07 08:55 35.01146 139.12358 22162 ft 421 kts 257°
2026-05-07 08:55 35.00552 139.08852 22526 ft 423 kts 257°
2026-05-07 08:56 34.99956 139.05335 22881 ft 426 kts 257°
2026-05-07 08:56 34.99353 139.01784 23223 ft 428 kts 257°
2026-05-07 08:56 34.98806 138.98214 23565 ft 431 kts 261°
2026-05-07 08:56 34.98586 138.94600 23892 ft 434 kts 265°
2026-05-07 08:57 34.98399 138.90913 24191 ft 437 kts 264°
2026-05-07 08:57 34.98207 138.87210 24519 ft 439 kts 264°
2026-05-07 08:57 34.98010 138.83493 24829 ft 440 kts 264°
2026-05-07 08:57 34.97811 138.79763 25135 ft 442 kts 264°
2026-05-07 08:58 34.97612 138.76014 25437 ft 444 kts 264°
2026-05-07 08:58 34.97410 138.72244 25736 ft 446 kts 264°
2026-05-07 08:58 34.97209 138.68514 26045 ft 448 kts 264°
2026-05-07 08:58 34.97005 138.64724 26351 ft 450 kts 264°
2026-05-07 08:59 34.96797 138.60904 26648 ft 451 kts 264°
2026-05-07 08:59 34.96589 138.57087 26909 ft 453 kts 264°
2026-05-07 08:59 34.96381 138.53246 27178 ft 455 kts 264°
2026-05-07 08:59 34.96175 138.49415 27552 ft 453 kts 264°
2026-05-07 09:00 34.95968 138.45579 27844 ft 453 kts 264°
2026-05-07 09:00 34.95757 138.41771 27924 ft 447 kts 264°
2026-05-07 09:00 34.95544 138.38003 27915 ft 443 kts 263°
2026-05-07 09:00 34.95330 138.34269 27917 ft 442 kts 263°
2026-05-07 09:01 34.95116 138.30532 27919 ft 442 kts 263°
2026-05-07 09:01 34.94904 138.26849 27910 ft 441 kts 263°
2026-05-07 09:01 34.94689 138.23116 27913 ft 441 kts 263°
2026-05-07 09:01 34.94473 138.19386 27908 ft 442 kts 264°
2026-05-07 09:02 34.94257 138.15653 27912 ft 442 kts 263°
2026-05-07 09:02 34.94040 138.11914 27910 ft 442 kts 263°
2026-05-07 09:02 34.93827 138.08183 27923 ft 441 kts 263°
2026-05-07 09:02 34.93609 138.04457 27909 ft 441 kts 263°
2026-05-07 09:03 34.93388 138.00728 27917 ft 441 kts 263°
2026-05-07 09:03 34.93164 137.97002 27911 ft 441 kts 263°
2026-05-07 09:03 34.92941 137.93320 27904 ft 441 kts 263°
2026-05-07 09:03 34.92720 137.89594 27901 ft 441 kts 263°
2026-05-07 09:04 34.92496 137.85871 27909 ft 440 kts 263°
2026-05-07 09:04 34.92268 137.82143 27914 ft 441 kts 263°
2026-05-07 09:04 34.92039 137.78422 27908 ft 441 kts 263°
2026-05-07 09:04 34.91810 137.74697 27916 ft 441 kts 263°
2026-05-07 09:05 34.91579 137.70968 27916 ft 441 kts 263°
2026-05-07 09:05 34.91137 137.67281 27907 ft 438 kts 255°
2026-05-07 09:05 34.90237 137.63754 27912 ft 436 kts 248°
2026-05-07 09:05 34.89204 137.60328 27901 ft 436 kts 248°
2026-05-07 09:06 34.88159 137.56853 27902 ft 437 kts 248°
2026-05-07 09:06 34.87118 137.53379 27900 ft 436 kts 248°
2026-05-07 09:06 34.86077 137.49912 27903 ft 437 kts 248°
2026-05-07 09:06 34.85030 137.46432 27898 ft 437 kts 249°
2026-05-07 09:07 34.84003 137.42944 27892 ft 438 kts 249°
2026-05-07 09:07 34.82999 137.39441 27891 ft 439 kts 250°
2026-05-07 09:07 34.82007 137.35932 27892 ft 440 kts 250°
2026-05-07 09:07 34.81014 137.32404 27894 ft 440 kts 250°
2026-05-07 09:08 34.80034 137.28932 27895 ft 440 kts 250°
2026-05-07 09:08 34.79033 137.25414 27895 ft 441 kts 249°
2026-05-07 09:08 34.78022 137.21892 27899 ft 441 kts 249°
2026-05-07 09:08 34.77005 137.18374 27902 ft 441 kts 249°
2026-05-07 09:09 34.75987 137.14856 27920 ft 441 kts 249°
2026-05-07 09:09 34.74967 137.11336 27919 ft 441 kts 249°
2026-05-07 09:09 34.73948 137.07818 27907 ft 441 kts 249°
2026-05-07 09:09 34.72928 137.04299 27912 ft 441 kts 249°
2026-05-07 09:10 34.71905 137.00776 27911 ft 442 kts 249°
2026-05-07 09:10 34.70808 136.97293 27913 ft 441 kts 244°
2026-05-07 09:10 34.69328 136.94106 27905 ft 440 kts 235°
2026-05-07 09:10 34.67475 136.91152 27921 ft 440 kts 232°
2026-05-07 09:11 34.65578 136.88231 27910 ft 440 kts 232°
2026-05-07 09:11 34.63682 136.85314 27909 ft 440 kts 232°
2026-05-07 09:11 34.61787 136.82387 27907 ft 441 kts 232°
2026-05-07 09:11 34.59893 136.79459 27911 ft 441 kts 232°
2026-05-07 09:12 34.58000 136.76532 27913 ft 441 kts 232°
2026-05-07 09:12 34.56129 136.73641 27922 ft 441 kts 232°
2026-05-07 09:12 34.54237 136.70719 27907 ft 441 kts 232°
2026-05-07 09:12 34.52338 136.67793 27914 ft 442 kts 232°
2026-05-07 09:13 34.50433 136.64866 27912 ft 442 kts 232°
2026-05-07 09:13 34.48531 136.61945 27903 ft 442 kts 232°
2026-05-07 09:13 34.46629 136.59014 27915 ft 442 kts 232°
2026-05-07 09:13 34.44731 136.56094 27907 ft 442 kts 232°
2026-05-07 09:14 34.42823 136.53169 27902 ft 442 kts 232°
2026-05-07 09:14 34.40909 136.50248 27915 ft 443 kts 232°
2026-05-07 09:14 34.38997 136.47330 27911 ft 443 kts 232°
2026-05-07 09:14 34.37108 136.44444 27901 ft 443 kts 232°
2026-05-07 09:15 34.35192 136.41514 27902 ft 444 kts 232°
2026-05-07 09:15 34.33277 136.38588 27905 ft 444 kts 232°
2026-05-07 09:15 34.31358 136.35663 27906 ft 444 kts 232°
2026-05-07 09:15 34.29438 136.32739 27906 ft 445 kts 232°
2026-05-07 09:16 34.27510 136.29805 27901 ft 445 kts 232°
2026-05-07 09:16 34.25585 136.26875 27909 ft 445 kts 232°
2026-05-07 09:16 34.23685 136.23983 27918 ft 445 kts 232°
2026-05-07 09:16 34.21762 136.21056 27912 ft 446 kts 232°
2026-05-07 09:17 34.19830 136.18121 27913 ft 446 kts 232°
2026-05-07 09:17 34.17893 136.15192 27902 ft 446 kts 232°
2026-05-07 09:17 34.15957 136.12268 27907 ft 446 kts 232°
2026-05-07 09:17 34.14021 136.09337 27905 ft 446 kts 232°
2026-05-07 09:18 34.12087 136.06407 27912 ft 447 kts 232°
2026-05-07 09:18 34.10154 136.03479 27919 ft 446 kts 232°
2026-05-07 09:18 34.08218 136.00550 27913 ft 447 kts 232°
2026-05-07 09:18 34.06280 135.97621 27911 ft 447 kts 232°
2026-05-07 09:19 34.04338 135.94695 27914 ft 447 kts 232°
2026-05-07 09:19 34.02423 135.91810 27917 ft 447 kts 232°
2026-05-07 09:19 34.00487 135.88893 27931 ft 447 kts 232°
2026-05-07 09:19 33.98541 135.85963 27929 ft 447 kts 232°
2026-05-07 09:20 33.96595 135.83038 27922 ft 447 kts 232°
2026-05-07 09:20 33.94646 135.80116 27920 ft 447 kts 232°
2026-05-07 09:20 33.92701 135.77203 27928 ft 447 kts 232°
2026-05-07 09:20 33.90752 135.74284 27929 ft 447 kts 232°
2026-05-07 09:21 33.88806 135.71364 27923 ft 447 kts 232°
2026-05-07 09:21 33.86884 135.68485 27925 ft 447 kts 232°
2026-05-07 09:21 33.84939 135.65570 27919 ft 448 kts 232°
2026-05-07 09:21 33.82985 135.62651 27930 ft 448 kts 232°
2026-05-07 09:22 33.81030 135.59733 27932 ft 448 kts 232°
2026-05-07 09:22 33.79079 135.56818 27930 ft 448 kts 232°
2026-05-07 09:22 33.77126 135.53904 27932 ft 448 kts 232°
2026-05-07 09:22 33.75174 135.50996 27941 ft 447 kts 232°
2026-05-07 09:23 33.73222 135.48091 27939 ft 447 kts 232°
2026-05-07 09:23 33.71268 135.45185 27939 ft 447 kts 232°
2026-05-07 09:23 33.69343 135.42325 27940 ft 447 kts 232°
2026-05-07 09:23 33.67384 135.39422 27942 ft 447 kts 232°
2026-05-07 09:24 33.65427 135.36522 27941 ft 447 kts 232°
2026-05-07 09:24 33.63473 135.33622 27937 ft 447 kts 232°
2026-05-07 09:24 33.61514 135.30721 27933 ft 447 kts 232°
2026-05-07 09:24 33.59558 135.27821 27935 ft 447 kts 232°
2026-05-07 09:25 33.57600 135.24921 27936 ft 447 kts 232°
2026-05-07 09:25 33.55642 135.22027 27939 ft 447 kts 232°
2026-05-07 09:25 33.53705 135.19165 27938 ft 447 kts 232°
2026-05-07 09:25 33.51741 135.16271 27937 ft 448 kts 231°
2026-05-07 09:26 33.49777 135.13380 27934 ft 448 kts 232°
2026-05-07 09:26 33.47815 135.10492 27933 ft 447 kts 232°
2026-05-07 09:26 33.45852 135.07601 27933 ft 447 kts 232°
2026-05-07 09:26 33.43887 135.04710 27934 ft 447 kts 232°
2026-05-07 09:27 33.41969 135.01793 27934 ft 446 kts 236°
2026-05-07 09:27 33.40402 134.98589 27943 ft 445 kts 245°
2026-05-07 09:27 33.38365 134.91659 27944 ft 445 kts 252°
2026-05-07 09:28 33.37427 134.88128 27939 ft 445 kts 252°
2026-05-07 09:28 33.36483 134.84598 27934 ft 445 kts 252°
2026-05-07 09:28 33.35536 134.81069 27935 ft 446 kts 252°
2026-05-07 09:28 33.34586 134.77538 27942 ft 446 kts 252°
2026-05-07 09:29 33.33634 134.74005 27946 ft 446 kts 252°
2026-05-07 09:29 33.32683 134.70480 27945 ft 446 kts 252°
2026-05-07 09:29 33.31736 134.66959 27942 ft 445 kts 252°
2026-05-07 09:29 33.30789 134.63434 27942 ft 445 kts 252°
2026-05-07 09:30 33.29855 134.59958 27941 ft 445 kts 252°
2026-05-07 09:30 33.28905 134.56439 27942 ft 445 kts 252°
2026-05-07 09:30 33.27954 134.52920 27945 ft 445 kts 252°
2026-05-07 09:30 33.27005 134.49410 27946 ft 445 kts 252°
2026-05-07 09:31 33.26052 134.45890 27948 ft 445 kts 252°
2026-05-07 09:31 33.25102 134.42379 27948 ft 444 kts 252°
2026-05-07 09:31 33.24152 134.38875 27946 ft 444 kts 252°
2026-05-07 09:31 33.23196 134.35372 27945 ft 444 kts 252°
2026-05-07 09:32 33.22241 134.31868 27940 ft 444 kts 252°
2026-05-07 09:32 33.21300 134.28407 27945 ft 443 kts 252°
2026-05-07 09:32 33.20346 134.24909 27938 ft 444 kts 252°
2026-05-07 09:32 33.19388 134.21407 27947 ft 443 kts 252°
2026-05-07 09:33 33.18429 134.17910 27937 ft 443 kts 251°
2026-05-07 09:33 33.17286 134.14495 27938 ft 443 kts 244°
2026-05-07 09:33 33.15799 134.11269 27940 ft 444 kts 241°
2026-05-07 09:33 33.14286 134.08072 27932 ft 444 kts 241°
2026-05-07 09:34 33.12767 134.04863 27935 ft 444 kts 241°
2026-05-07 09:34 33.11251 134.01654 27936 ft 444 kts 241°
2026-05-07 09:34 33.09757 133.98486 27939 ft 444 kts 241°
2026-05-07 09:34 33.08241 133.95275 27943 ft 444 kts 241°
2026-05-07 09:35 33.06727 133.92073 27946 ft 443 kts 241°
2026-05-07 09:35 33.05210 133.88875 27950 ft 443 kts 241°
2026-05-07 09:35 33.03693 133.85684 27950 ft 443 kts 241°
2026-05-07 09:35 33.02172 133.82487 27945 ft 443 kts 241°
2026-05-07 09:36 33.00652 133.79293 27947 ft 443 kts 241°
2026-05-07 09:36 32.99151 133.76139 27947 ft 443 kts 241°
2026-05-07 09:36 32.97634 133.72946 27945 ft 443 kts 241°
2026-05-07 09:36 32.96121 133.69756 27945 ft 443 kts 241°
2026-05-07 09:37 32.94600 133.66559 27943 ft 443 kts 241°
2026-05-07 09:37 32.93078 133.63373 27945 ft 443 kts 241°
2026-05-07 09:37 32.91552 133.60185 27944 ft 443 kts 241°
2026-05-07 09:37 32.90108 133.56950 27943 ft 443 kts 246°
2026-05-07 09:38 32.89072 133.53500 27941 ft 443 kts 253°
2026-05-07 09:38 32.88209 133.49993 27941 ft 443 kts 253°
2026-05-07 09:38 32.87342 133.46479 27941 ft 442 kts 253°
2026-05-07 09:38 32.86483 133.43012 27941 ft 442 kts 253°
2026-05-07 09:39 32.85614 133.39514 27943 ft 442 kts 253°
2026-05-07 09:39 32.84739 133.36004 27941 ft 442 kts 253°
2026-05-07 09:39 32.83861 133.32499 27940 ft 442 kts 253°
2026-05-07 09:39 32.82978 133.28993 27933 ft 442 kts 253°
2026-05-07 09:40 32.82098 133.25492 27940 ft 442 kts 253°
2026-05-07 09:40 32.81221 133.21986 27937 ft 442 kts 253°
2026-05-07 09:40 32.80347 133.18490 27938 ft 442 kts 253°
2026-05-07 09:40 32.79482 133.15034 27940 ft 442 kts 253°
2026-05-07 09:41 32.78603 133.11537 27938 ft 442 kts 253°
2026-05-07 09:41 32.77721 133.08040 27936 ft 442 kts 253°
2026-05-07 09:41 32.76838 133.04551 27938 ft 442 kts 253°
2026-05-07 09:41 32.75766 133.01131 27938 ft 441 kts 245°
2026-05-07 09:42 32.74232 132.97980 27941 ft 442 kts 236°
2026-05-07 09:42 32.72296 132.95138 27939 ft 443 kts 230°
2026-05-07 09:42 32.70273 132.92377 27945 ft 443 kts 230°
2026-05-07 09:42 32.68280 132.89648 27927 ft 442 kts 230°
2026-05-07 09:43 32.66293 132.86930 27602 ft 434 kts 230°
2026-05-07 09:43 32.64307 132.84209 27351 ft 439 kts 231°
2026-05-07 09:43 32.62297 132.81458 27098 ft 441 kts 231°
2026-05-07 09:43 32.60286 132.78709 26794 ft 443 kts 230°
2026-05-07 09:44 32.58262 132.75945 26043 ft 444 kts 231°
2026-05-07 09:44 32.56234 132.73179 25291 ft 445 kts 231°
2026-05-07 09:44 32.54197 132.70402 24409 ft 448 kts 231°
2026-05-07 09:44 32.52140 132.67598 23295 ft 452 kts 231°
2026-05-07 09:45 32.50074 132.64784 22425 ft 453 kts 231°
2026-05-07 09:45 32.48033 132.62004 21626 ft 455 kts 231°
2026-05-07 09:45 32.45960 132.59187 20971 ft 449 kts 231°
2026-05-07 09:45 32.43930 132.56437 20356 ft 439 kts 231°
2026-05-07 09:46 32.41934 132.53732 19598 ft 433 kts 231°
2026-05-07 09:46 32.39963 132.51060 18841 ft 429 kts 231°
2026-05-07 09:46 32.38012 132.48416 18070 ft 424 kts 231°
2026-05-07 09:46 32.36077 132.45800 17323 ft 420 kts 231°
2026-05-07 09:47 32.34190 132.43250 16580 ft 415 kts 230°
2026-05-07 09:47 32.32300 132.40700 15851 ft 411 kts 230°
2026-05-07 09:47 32.30421 132.38163 15059 ft 408 kts 230°
2026-05-07 09:47 32.28561 132.35650 14429 ft 404 kts 230°
2026-05-07 09:48 32.26717 132.33161 13820 ft 401 kts 230°
2026-05-07 09:48 32.24886 132.30694 13302 ft 398 kts 230°
2026-05-07 09:48 32.23070 132.28247 12714 ft 395 kts 230°
2026-05-07 09:48 32.21270 132.25821 12127 ft 391 kts 230°
2026-05-07 09:49 32.19489 132.23423 11693 ft 382 kts 229°
2026-05-07 09:49 32.17799 132.21153 11566 ft 364 kts 229°
2026-05-07 09:49 32.16166 132.18961 11442 ft 347 kts 229°
2026-05-07 09:49 32.14630 132.16902 11311 ft 322 kts 229°
2026-05-07 09:50 32.13204 132.14984 11179 ft 300 kts 230°
2026-05-07 09:50 32.11857 132.13173 10799 ft 289 kts 230°
2026-05-07 09:50 32.10541 132.11404 10274 ft 285 kts 230°
2026-05-07 09:50 32.09244 132.09658 10059 ft 283 kts 229°
2026-05-07 09:51 32.07948 132.07916 9840 ft 282 kts 229°
2026-05-07 09:51 32.06652 132.06178 9615 ft 282 kts 229°
2026-05-07 09:51 32.05373 132.04465 9410 ft 282 kts 229°
2026-05-07 09:51 32.04077 132.02732 9193 ft 282 kts 229°
2026-05-07 09:52 32.02782 132.00999 8979 ft 282 kts 229°
2026-05-07 09:52 32.01486 131.99267 8762 ft 281 kts 229°
2026-05-07 09:52 32.00193 131.97541 8540 ft 281 kts 229°
2026-05-07 09:52 31.98902 131.95821 8327 ft 280 kts 229°
2026-05-07 09:53 31.97614 131.94107 8111 ft 279 kts 229°
2026-05-07 09:53 31.96333 131.92402 7894 ft 278 kts 229°
2026-05-07 09:53 31.95052 131.90696 7679 ft 278 kts 229°
2026-05-07 09:53 31.93792 131.89019 7466 ft 276 kts 229°
2026-05-07 09:54 31.92518 131.87325 7257 ft 276 kts 229°
2026-05-07 09:54 31.91301 131.85583 7041 ft 275 kts 237°
2026-05-07 09:54 31.90494 131.83554 6832 ft 274 kts 253°
2026-05-07 09:54 31.90189 131.81345 6622 ft 274 kts 265°
2026-05-07 09:55 31.90063 131.79120 6236 ft 272 kts 265°
2026-05-07 09:55 31.89928 131.76905 5823 ft 271 kts 265°
2026-05-07 09:55 31.89792 131.74704 5415 ft 269 kts 265°
2026-05-07 09:55 31.89657 131.72539 5015 ft 268 kts 265°
2026-05-07 09:56 31.89548 131.70358 4815 ft 267 kts 270°
2026-05-07 09:56 31.89805 131.68189 4689 ft 270 kts 285°
2026-05-07 09:56 31.90419 131.66107 4411 ft 269 kts 289°
2026-05-07 09:56 31.91047 131.64044 4009 ft 268 kts 289°
2026-05-07 09:57 31.91673 131.61983 3607 ft 268 kts 289°
2026-05-07 09:57 31.92295 131.59930 3505 ft 266 kts 288°
2026-05-07 09:57 31.92916 131.57873 3506 ft 267 kts 288°
2026-05-07 09:57 31.93521 131.55875 3501 ft 254 kts 288°
2026-05-07 09:58 31.94094 131.53981 3504 ft 237 kts 288°
2026-05-07 09:58 31.94632 131.52203 3509 ft 225 kts 288°
2026-05-07 09:58 31.95129 131.50534 3514 ft 209 kts 285°
2026-05-07 09:58 31.95310 131.48861 3508 ft 205 kts 266°
2026-05-07 09:59 31.95188 131.47257 3517 ft 187 kts 264°
2026-05-07 09:59 31.95083 131.45815 3503 ft 167 kts 264°
2026-05-07 09:59 31.94992 131.44492 3499 ft 160 kts 264°
2026-05-07 09:59 31.94903 131.43189 3509 ft 159 kts 264°
2026-05-07 10:00 31.94810 131.41891 3421 ft 159 kts 263°
2026-05-07 10:00 31.94716 131.40618 3169 ft 157 kts 263°
2026-05-07 10:00 31.94621 131.39338 2930 ft 157 kts 264°
2026-05-07 10:00 31.94442 131.38075 2726 ft 156 kts 251°
2026-05-07 10:01 31.93965 131.36936 2505 ft 155 kts 233°
2026-05-07 10:01 31.93228 131.36018 2307 ft 155 kts 216°
2026-05-07 10:01 31.92297 131.35387 2096 ft 154 kts 200°
2026-05-07 10:01 31.91294 131.35110 1889 ft 145 kts 184°
2026-05-07 10:02 31.90305 131.35166 1708 ft 141 kts 168°
2026-05-07 10:02 31.89393 131.35517 1517 ft 139 kts 153°
2026-05-07 10:02 31.88589 131.36131 1344 ft 137 kts 137°
2026-05-07 10:02 31.87957 131.36961 1158 ft 136 kts 123°
2026-05-07 10:03 31.87532 131.37950 985 ft 136 kts 108°
2026-05-07 10:03 31.87335 131.39032 800 ft 135 kts 95°
2026-05-07 10:03 31.87377 131.40135 618 ft 135 kts 84°
2026-05-07 10:03 31.87475 131.41239 449 ft 136 kts 86°
2026-05-07 10:04 31.87546 131.42347 272 ft 136 kts 85°
2026-05-07 10:04 31.87619 131.43453 100 ft 136 kts 85°
2026-05-07 10:04 31.87694 131.44498 33 ft 116 kts 85°
2026-05-07 10:04 31.87736 131.45195 31 ft 59 kts 85°
2026-05-07 10:05 31.87757 131.45488 30 ft 16 kts 85°
2026-05-07 10:05 31.87704 131.45566 29 ft 13 kts 177°
2026-05-07 10:05 31.87621 131.45544 31 ft 10 kts 196°
2026-05-07 10:05 31.87589 131.45482 31 ft 9 kts 263°
2026-05-07 10:06 31.87584 131.45412 31 ft 8 kts 265°
2026-05-07 10:06 31.87581 131.45360 31 ft 12 kts 265°
2026-05-07 10:06 31.87569 131.45180 31 ft 20 kts 265°
2026-05-07 10:06 31.87557 131.45015 31 ft 20 kts 265°
2026-05-07 10:07 31.87546 131.44850 31 ft 20 kts 265°
2026-05-07 10:07 31.87535 131.44685 30 ft 20 kts 265°
2026-05-07 10:07 31.87524 131.44519 30 ft 20 kts 265°
2026-05-07 10:07 31.87512 131.44354 30 ft 20 kts 265°
2026-05-07 10:08 31.87505 131.44245 30 ft 20 kts 265°
2026-05-07 10:08 31.87488 131.44144 30 ft 7 kts 218°
2026-05-07 10:08 31.87443 131.44135 30 ft 7 kts 177°
2026-05-07 10:08 31.87399 131.44140 30 ft 6 kts 175°
2026-05-07 10:09 31.87368 131.44143 30 ft 2 kts 175°
2026-05-07 10:09 31.87363 131.44143 30 ft 0 kts 175°